New Monbetsu current weather conditions

sailwx.info

Wind from 290 at 17 knots

Air temperature -7.0° C
Visibility: greater than 5.4 NM
Dewpoint -16.0° C

Last reported at 2020-Jan-25 07:00 UTC.
Time now 2020-Jan-25 14:27 UTC

Location: N 44°18' E 143°24'.
View on Google Maps.

See reports from other nearby stations

  
Tides and Currents Weather Stations Pressure Air Temp Water Temp Dewpoint Dewpoint Depression Visibility Wind Speed Wind Dir Waves Ship Positions
date/time (UTC)wind fromknots sea level pressurealtimeterstation pressurevisibilityair tempwater tempwave heightnotes
2020-Jan-25 07:00 290 17 5.4-7.0
2020-Jan-25 06:00 290 21 5.4-7.0 Light low drifting snow.
2020-Jan-25 05:00 310 13 2.7-8.0 Light snow showers.
2020-Jan-25 04:37 330 14 1.2-8.0 Light snow showers.
2020-Jan-25 04:21 330 15 1.3-8.0 Light snow showers.
2020-Jan-25 04:19 330 15 0.9-8.0 Light snow showers.
2020-Jan-25 04:13 330 15 0.8-8.0 Light snow showers.
2020-Jan-25 04:11 320 15 0.8-8.0 Light snow showers.
2020-Jan-25 04:09 320 15 1.2-8.0 Light snow showers.
2020-Jan-25 04:04 320 15 1.7-7.0 Light snow showers.
2020-Jan-25 04:00 320 14 2.6-7.0 Light snow showers.
2020-Jan-25 03:00 280 15 5.4-6.0
2020-Jan-25 02:00 290 14 5.4-7.0
2020-Jan-25 01:00 300 13 2.7-8.0 Light snow showers.
2020-Jan-25 00:43 290 14 2.6-9.0 Light snow showers.
2020-Jan-25 00:31 290 14 2.7-9.0 Light snow showers.
2020-Jan-25 00:11 300 15 2.6-9.0 Light snow showers.
2020-Jan-25 00:00 300 18 5.4-8.0 Light snow showers.
2020-Jan-24 07:00 290 22 gusting 33 5.4-6.0
2020-Jan-24 06:00 290 20 gusting 32 5.4-5.0 Light snow showers.
2020-Jan-24 05:00 280 20 5.4-4.0 Light snow showers.
2020-Jan-24 04:38 290 15 2.7-4.0 Light snow showers.
2020-Jan-24 04:37 290 17 1.3-4.0 Light snow showers.
2020-Jan-24 04:34 290 18 0.8-4.0 Light snow showers.
2020-Jan-24 04:30 300 18 0.5-4.0 Light snow showers.
2020-Jan-24 04:29 300 18 0.8-4.0 Light snow showers.
2020-Jan-24 04:28 300 18 1.2-4.0 Light snow showers.
2020-Jan-24 04:23 290 18 1.7-4.0 Light snow showers.
2020-Jan-24 04:18 290 19 2.6-3.0 Light snow showers.
2020-Jan-24 04:00 290 20 5.4-3.0
2020-Jan-24 03:00 270 18 5.4-1.0
2020-Jan-24 02:00 280 18 5.4-1.0 Light snow showers.
2020-Jan-24 01:00 230 6 5.4-2.0 Light snow showers.
2020-Jan-24 00:00 240 6 5.4-3.0